Lafayette, CO

12:12 PM MST on February 26, 2017 (GMT -0700)
Erie Municipal Airport

Weather History for KEIK - April, 2013

Change the Weather History Date:

Saturday, April 27, 2013

  Actual Average (KBJC) Record (KBJC)
Temperature  
Mean Temperature 53 °F -  
Max Temperature 73 °F 59 °F 84 °F (1992)
Min Temperature 33 °F 38 °F 2 °F (1986)
Degree Days  
Heating Degree Days 12    
Growing Degree Days 3 (Base 50)    
Moisture  
Dew Point 23 °F    
Average Humidity 39    
Maximum Humidity 85    
Minimum Humidity 10    
Precipitation  
Precipitation 0.00 in - - ()
Sea Level Pressure  
Sea Level Pressure 30.13 in    
Wind  
Wind Speed 2 mph (SW)    
Max Wind Speed 12 mph    
Max Gust Speed -    
Visibility 10 miles    
Events      
Averages and records for this station are not official NWS values.
T = Trace of Precipitation, MM = Missing Value Source: NWS Daily Summary

Daily Weather History Graph

Daily Weather History Graph

Search for Another Location

Airport or City:

Trip Planner

Search our weather history database for the weather conditions in past years. The results will help you decide how hot, cold, wet, or windy it might be!

Date:

Astronomy

Apr. 27, 2013 Rise Set
Actual Time 6:04 AM MDT 7:51 PM MDT
Civil Twilight 5:35 AM MDT 8:20 PM MDT
Nautical Twilight 5:00 AM MDT 8:55 PM MDT
Astronomical Twilight 4:23 AM MDT 9:33 PM MDT
Moon 10:23 PM MDT (4/27) 7:25 AM MDT (4/27)
Length of Visible Light 14h 44m
Length of Day
13h 46m
Waning Gibbous, 95% of the Moon is Illuminated
Apr 27
Waning Gibbous
May 2
Last Quarter
May 9
New
May 17
First Quarter
May 24
Full

Hourly Weather History & Observations

Time (MDT) Temp. Windchill Dew Point Humidity Pressure Visibility Wind Dir Wind Speed Gust Speed Precip Events Conditions
12:16 AM 40.1 °F - 31.3 °F 71% 30.23 in 10.0 mi Calm Calm - N/A   Clear
12:36 AM 40.5 °F - 31.8 °F 71% 30.22 in 10.0 mi Calm Calm - N/A   Clear
12:56 AM 39.4 °F - 31.8 °F 74% 30.22 in 10.0 mi Calm Calm - N/A   Clear
1:16 AM 40.3 °F - 30.4 °F 68% 30.21 in 10.0 mi Calm Calm - N/A   Clear
1:36 AM 38.1 °F - 30.9 °F 75% 30.20 in 10.0 mi Calm Calm - N/A   Clear
1:56 AM 36.9 °F - 31.8 °F 82% 30.20 in 10.0 mi Calm Calm - N/A   Clear
2:16 AM 37.4 °F 34.9 °F 31.5 °F 79% 30.20 in 10.0 mi SSE 3.5 mph - N/A   Clear
2:56 AM 36.1 °F 33.5 °F 30.4 °F 80% 30.19 in 10.0 mi SSW 3.5 mph - N/A   Clear
3:16 AM 35.4 °F - 31.3 °F 85% 30.18 in 10.0 mi Calm Calm - N/A   Clear
3:36 AM 35.8 °F - 30.9 °F 82% 30.18 in 10.0 mi Calm Calm - N/A   Clear
3:56 AM 36.1 °F - 30.2 °F 79% 30.18 in 10.0 mi Calm Calm - N/A   Clear
4:16 AM 36.1 °F - 30.0 °F 78% 30.18 in 10.0 mi Calm Calm - N/A   Clear
4:36 AM 36.0 °F - 29.5 °F 77% 30.18 in 10.0 mi Calm Calm - N/A   Clear
4:56 AM 35.4 °F - 29.5 °F 79% 30.17 in 10.0 mi Calm Calm - N/A   Clear
5:16 AM 33.8 °F 30.8 °F 29.5 °F 84% 30.17 in 10.0 mi SW 3.5 mph - N/A   Clear
5:36 AM 33.6 °F 30.6 °F 29.1 °F 84% 30.17 in 10.0 mi South 3.5 mph - N/A   Clear
5:56 AM 33.3 °F - 29.3 °F 85% 30.17 in 10.0 mi Calm Calm - N/A   Clear
6:16 AM 34.2 °F - 28.2 °F 79% 30.18 in 10.0 mi Calm Calm - N/A   Clear
6:36 AM 33.4 °F - 29.3 °F 85% 30.18 in 10.0 mi Calm Calm - N/A   Clear
6:56 AM 36.7 °F 34.1 °F 30.0 °F 77% 30.18 in 10.0 mi SSW 3.5 mph - N/A   Clear
7:16 AM 39.0 °F 36.8 °F 32.5 °F 78% 30.18 in 10.0 mi South 3.5 mph - N/A   Clear
7:36 AM 45.5 °F - 32.7 °F 61% 30.18 in 10.0 mi Calm Calm - N/A   Clear
7:56 AM 49.3 °F - 32.9 °F 53% 30.18 in 10.0 mi Calm Calm - N/A   Clear
8:16 AM 55.6 °F - 29.5 °F 37% 30.18 in 10.0 mi Calm Calm - N/A   Clear
8:36 AM 58.8 °F - 25.7 °F 28% 30.18 in 10.0 mi Calm Calm - N/A   Clear
8:56 AM 61.2 °F - 25.5 °F 26% 30.17 in 10.0 mi East 3.5 mph - N/A   Clear
9:16 AM 63.1 °F - 21.7 °F 21% 30.17 in 10.0 mi Calm Calm - N/A   Clear
9:36 AM 63.5 °F - 19.6 °F 19% 30.17 in 10.0 mi North 3.5 mph - N/A   Clear
9:56 AM 64.0 °F - 15.8 °F 15% 30.17 in 10.0 mi Calm Calm - N/A   Clear
10:16 AM 65.8 °F - 19.0 °F 17% 30.17 in 10.0 mi Calm Calm - N/A   Clear
10:36 AM 66.6 °F - 17.8 °F 15% 30.17 in 10.0 mi NNE 3.5 mph - N/A   Clear
10:56 AM 67.8 °F - 13.8 °F 12% 30.17 in 10.0 mi Calm Calm - N/A   Clear
11:16 AM 68.2 °F - 12.0 °F 11% 30.17 in 10.0 mi NE 5.8 mph - N/A   Clear
11:36 AM 69.1 °F - 14.9 °F 12% 30.17 in 10.0 mi Calm Calm - N/A   Clear
11:56 AM 68.7 °F - 9.5 °F 10% 30.16 in 10.0 mi Calm Calm - N/A   Clear
12:16 PM 69.4 °F - 11.1 °F 10% 30.16 in 10.0 mi Calm Calm - N/A   Clear
12:36 PM 69.8 °F - 14.9 °F 12% 30.15 in 10.0 mi NNE 5.8 mph - N/A   Clear
12:56 PM 70.3 °F - 16.9 °F 13% 30.14 in 10.0 mi ESE 4.6 mph - N/A   Clear
1:16 PM 70.7 °F - 15.8 °F 12% 30.13 in 10.0 mi Calm Calm - N/A   Clear
1:36 PM 70.0 °F - 14.7 °F 12% 30.12 in 10.0 mi South 3.5 mph - N/A   Clear
1:56 PM 71.1 °F - 15.6 °F 12% 30.11 in 10.0 mi SSE 5.8 mph - N/A   Clear
2:16 PM 71.2 °F - 16.0 °F 12% 30.11 in 10.0 mi ENE 6.9 mph - N/A   Clear
2:36 PM 71.8 °F - 16.7 °F 12% 30.10 in 10.0 mi North 4.6 mph - N/A   Clear
2:56 PM 71.6 °F - 16.3 °F 12% 30.09 in 10.0 mi SSW 4.6 mph - N/A   Clear
3:16 PM 71.8 °F - 14.4 °F 11% 30.09 in 10.0 mi NNW 3.5 mph - N/A   Clear
3:36 PM 72.3 °F - 15.6 °F 12% 30.07 in 10.0 mi Calm Calm - N/A   Clear
3:56 PM 72.5 °F - 16.5 °F 12% 30.06 in 10.0 mi SW 3.5 mph - N/A   Clear
4:16 PM 73.4 °F - 17.1 °F 12% 30.06 in 10.0 mi SW 6.9 mph - N/A   Clear
4:36 PM 72.7 °F - 15.1 °F 11% 30.05 in 10.0 mi Calm Calm - N/A   Clear
4:56 PM 73.2 °F - 16.0 °F 11% 30.04 in 10.0 mi ESE 5.8 mph - N/A   Clear
5:16 PM 72.0 °F - 16.5 °F 12% 30.04 in 10.0 mi Calm Calm - N/A   Clear
5:36 PM 72.5 °F - 17.6 °F 12% 30.04 in 10.0 mi ENE 4.6 mph - N/A   Clear
5:56 PM 73.4 °F - 17.2 °F 12% 30.04 in 10.0 mi Calm Calm - N/A   Clear
6:16 PM 72.5 °F - 14.5 °F 11% 30.03 in 10.0 mi East 3.5 mph - N/A   Clear
6:36 PM 72.5 °F - 12.7 °F 10% 30.03 in 10.0 mi Calm Calm - N/A   Clear
6:56 PM 71.1 °F - 20.3 °F 15% 30.03 in 10.0 mi WNW 4.6 mph - N/A   Clear
7:16 PM 67.6 °F - 24.3 °F 19% 30.03 in 10.0 mi WNW 6.9 mph - N/A   Clear
7:36 PM 63.7 °F - 27.9 °F 26% 30.04 in 10.0 mi WNW 8.1 mph - N/A   Clear
7:56 PM 61.2 °F - 25.2 °F 25% 30.04 in 10.0 mi WNW 10.4 mph - N/A   Clear
8:16 PM 60.6 °F - 21.6 °F 22% 30.05 in 10.0 mi West 10.4 mph - N/A   Clear
8:36 PM 58.3 °F - 22.6 °F 25% 30.05 in 10.0 mi WNW 11.5 mph - N/A   Clear
8:56 PM 57.6 °F - 22.5 °F 26% 30.06 in 10.0 mi West 8.1 mph - N/A   Clear
9:16 PM 55.6 °F - 22.3 °F 27% 30.07 in 10.0 mi West 3.5 mph - N/A   Clear
9:36 PM 55.4 °F - 22.3 °F 28% 30.07 in 10.0 mi WNW 6.9 mph - N/A   Clear
9:56 PM 51.4 °F - 27.7 °F 40% 30.07 in 10.0 mi SSW 3.5 mph - N/A   Clear
10:16 PM 49.8 °F - 29.5 °F 46% 30.07 in 10.0 mi SSW 3.5 mph - N/A   Clear
10:36 PM 47.5 °F - 31.1 °F 53% 30.07 in 10.0 mi Calm Calm - N/A   Clear
10:56 PM 45.7 °F - 31.8 °F 58% 30.07 in 10.0 mi Calm Calm - N/A   Clear
11:16 PM 45.9 °F 42.3 °F 30.7 °F 56% 30.06 in 10.0 mi South 6.9 mph - N/A   Clear
11:36 PM 48.0 °F - 28.2 °F 46% 30.05 in 10.0 mi SSW 8.1 mph - N/A   Clear
11:56 PM 49.5 °F - 27.3 °F 42% 30.05 in 10.0 mi SSW 5.8 mph - N/A   Clear